Weather Roundup
Issued by NWS

Home | Current Version | Previous Version | Text Only | Print | Product List | Glossary On
Versions: 1 2 3 4 5 6 7 8 9 10 11 12 13 14 15 16 17 18 19 20 21 22 23 24 25 26 27 28 29 30 31 32 33 34 35 36 37 38 39 40 41 42 43 44 45 46 47 48 49 50
000
NZUS93 KARX 031610
HRRWXR

CURRENT HOURLY OBSERVATIONS ACROSS
MUCH OF THE UPPER MISSISSIPPI VALLEY
NATIONAL WEATHER SERVICE LA CROSSE WI
1100 AM CDT SUN MAY 03 2015


...SOUTHEAST MINNESOTA...


CITY           SKY/WX    TMP DP  RH WIND       PRES   REMARKS
ROCHESTER      PTSUNNY   72  54  53 SW12      29.82F
ROCHESTER/MAYO FAIR      69  53  56 S6        29.82S
WINONA         CLOUDY    70  52  52 SW5       29.82F
AUSTIN         SUNNY     73  55  53 SW12      29.81S
ALBERT LEA     SUNNY     72  54  53 S8        29.80S
DODGE CENTER   PTSUNNY   72  54  53 SW6       29.81S
PRESTON        PTSUNNY   68  53  58 S8        29.84S
OWATONNA       MOSUNNY   73  52  46 S6        29.79F
FARIBAULT      MOSUNNY   72  54  53 SE5       29.79S
$$

...ELSEWHERE IN MINNESOTA...


CITY           SKY/WX    TMP DP  RH WIND       PRES   REMARKS
MINNEAPOLIS    PTSUNNY   71  55  56 VRB3      29.78R
INTNL FALLS    PTSUNNY   64  38  38 NW15G23   29.76R
DULUTH         MOSUNNY   74  51  44 NW10      29.74S
RED WING       PTSUNNY   70  52  52 SW3       29.79S
REDWOOD FALLS  SUNNY     74  54  49 SW13      29.75F
MANKATO        SUNNY     72  52  49 SW7       29.78S
WORTHINGTON    SUNNY     73  52  46 SW12      29.78S
FAIRMONT       MOSUNNY   73  48  40 S10       29.79S
$$

...SOUTHWEST WISCONSIN...


CITY           SKY/WX    TMP DP  RH WIND       PRES   REMARKS
LA CROSSE      CLOUDY    71  50  47 S10       29.83R
PRAIRIE DU CHI CLOUDY    70  50  50 S8        29.86S
BOSCOBEL       CLOUDY    72  53  51 S14G20    29.86S
LONE ROCK      CLOUDY    72  54  53 S14G20    29.87S
PLATTEVILLE    CLOUDY    65  53  65 S16       29.90R
FORT MC COY    CLOUDY    71  49  46 S13G18    29.84F
CAMP DOUGLAS   PTSUNNY   72  52  49 S12       29.84S
VIROQUA        FAIR      69  52  54 S13       29.86F
WIS DELLS      NOT AVBL
$$

...ELSEWHERE IN WISCONSIN...


CITY           SKY/WX    TMP DP  RH WIND       PRES   REMARKS
MILWAUKEE      CLOUDY    70  45  40 S15       29.94R
MADISON        CLOUDY    67  50  54 S10       29.89F
GREEN BAY      PTSUNNY   71  50  47 SW15      29.88S
EAU CLAIRE     MOSUNNY   70  51  51 SW7       29.80R
BLACK RVR FLS  FAIR      72  48  43 SW10      29.83S
MEDFORD        MOSUNNY   67  52  57 S13       29.82F
WAUSAU         PTSUNNY   69  50  50 S12       29.83F
WIS RAPIDS     PTSUNNY   71  48  43 S12       29.87S
MARSHFIELD     PTSUNNY   72  50  45 SW12      29.84F
RICE LAKE      MOSUNNY   69  51  53 S9        29.82S
$$

...NORTHEAST IOWA...


CITY           SKY/WX    TMP DP  RH WIND       PRES   REMARKS
DECORAH        PTSUNNY   70  54  56 S12G20    29.83F
MASON CITY     MOSUNNY   74  54  49 S10       29.82F
CHARLES CITY   PTSUNNY   68  57  68 S12G22    29.84S
OELWEIN        PTSUNNY   68  54  60 S17       29.85F
$$

...ELSEWHERE IN IOWA...


CITY           SKY/WX    TMP DP  RH WIND       PRES   REMARKS
DES MOINES     CLOUDY    75  58  55 S14       29.81S
IOWA CITY      CLOUDY    61  55  81 E5        29.89S
FORT DODGE     MOSUNNY   73  59  60 SW10G16   29.80F
$$

...NORTHERN ILLINOIS...


CITY           SKY/WX    TMP DP  RH WIND       PRES   REMARKS
CHICAGO-OHARE  PTSUNNY   72  45  37 SW12G22   29.97S
CHICAGO-MIDWAY PTSUNNY   74  45  35 S14       29.98S
MOLINE         CLOUDY    70  54  56 S13       29.87F
ROCKFORD       CLOUDY    73  52  47 SW20G26   29.95S
PEORIA         SUNNY     76  51  41 S10       29.97F
$$

NOTE: "FAIR" INDICATES FEW OR NO CLOUDS BELOW 12,000 FEET WITH NO
SIGNIFICANT WEATHER AND/OR OBSTRUCTIONS TO VISIBILITY. WIND
SPEEDS ARE IN MILES-PER-HOUR.



USA.gov is the U.S. government's official web portal to all federal, state and local government web resources and services.